Preview of NWS' New Version of Forecast
This preview is not operational and should not be used for support decisions.

Regional Weather Roundup (RWR)

Issued by National Weather Service (NWS)

                            
000
ASUS45 KBOI 200510
RWRID 

IDAHO REGIONAL WEATHER ROUNDUP
NATIONAL WEATHER SERVICE BOISE ID
1000 PM MST TUE FEB 19 2019

NOTE: "FAIR" INDICATES FEW OR NO CLOUDS BELOW 12000 FEET
WITH NO SIGNIFICANT WEATHER AND/OR OBSTRUCTIONS TO VISIBILITY

IDZ012-014-200600-
SOUTHWEST IDAHO

  
CITY           SKY/WX    TMP DP  RH WIND       PRES   REMARKS
BOISE          LGT SNOW  28  25  88 S5        29.88F VSB 1   WCI  23  
CALDWELL       LGT SNOW  30  28  92 SE7       29.90F FOG     WCI  23  
MOUNTAIN HOME  LGT SNOW  27  27 100 VRB2      29.88F FOG              
$$

IDZ016-017-200600-
SOUTHCENTRAL IDAHO

  
CITY           SKY/WX    TMP DP  RH WIND       PRES   REMARKS
BURLEY         LGT SNOW  23  19  85 W14       29.82F FOG     WCI  11  
JEROME         LGT SNOW  24  23  96 S7        29.84F FOG     WCI  16  
TWIN FALLS     CLOUDY    25  16  68 SW14      29.84F WCI  13          
$$

IDZ019>023-200600-
SOUTHEAST IDAHO

  
CITY           SKY/WX    TMP DP  RH WIND       PRES   REMARKS
IDAHO FALLS    LGT SNOW  16  11  80 S9        29.81F WCI   4          
POCATELLO      CLOUDY    22  18  85 SW9       29.82F WCI  12          
REXBURG        LGT SNOW  15  11  83 SW6       29.79F FOG     WCI   6  
$$

IDZ006-010-011-018-031-032-200600-
CENTRAL IDAHO MOUNTAINS

  
CITY           SKY/WX    TMP DP  RH WIND       PRES   REMARKS
MCCALL         LGT SNOW  18  15  88 CALM      29.73F FOG              
HAILEY         CLOUDY    12   9  85 NW6       29.76F WCI   3          
STANLEY          N/A     13   8  81 CALM      29.70F                  
SALMON         LGT SNOW  19  18  93 N5        29.77F FOG     WCI  13  
CHALLIS        CLOUDY    17  11  77 CALM      29.73F                  
$$

IDZ002-004-006-007-026-200600-
NORTHERN IDAHO

  
CITY           SKY/WX    TMP DP  RH WIND       PRES   REMARKS
LEWISTON       LGT SNOW  26  24  92 CALM      29.87F FOG              
LOWELL           N/A     27  26  96 CALM      29.90F                  
COEUR D'ALENE  LGT SNOW  20  18  92 CALM      29.82F FOG              
MULLAN PASS    LGT SNOW  12   8  84 CALM      29.60F FOG              
$$